Regional Weather Roundup
Issued by NWS

Home | Current Version | Previous Version | Graphics & Text | Print | Product List | Glossary On
Versions: 1 2 3 4 5 6 7 8 9 10 11 12 13 14 15 16 17 18 19 20 21 22 23 24 25 26 27 28 29 30 31 32 33 34 35 36 37 38 39 40 41 42 43 44 45 46 47 48 49 50
000
ASUS43 KMKX 242321
RWRWI

WISCONSIN REGIONAL WEATHER ROUNDUP
NATIONAL WEATHER SERVICE MILWAUKEE/SULLIVAN WI
600 PM CDT SAT JUN 24 2017

NOTE: "FAIR" INDICATES FEW OR NO CLOUDS BELOW 12,000 FEET WITH NO
SIGNIFICANT WEATHER AND/OR OBSTRUCTIONS TO VISIBILITY.

WIZ001-002-006>008-014>016-023>028-250000-
NORTHWEST WISCONSIN

CITY           SKY/WX    TMP DP  RH WIND       PRES   REMARKS
SUPERIOR ARPT  NOT AVBL
ASHLAND        CLOUDY    60  48  64 W9        29.94S
HAYWARD        LGT RAIN  56  48  74 VRB3      29.97S
SIREN          MOSUNNY   64  43  46 NW5       29.98S
CUMBERLAND     SUNNY     59  43  55 W13       29.98S
RICE LAKE      SUNNY     63  44  49 W9        29.99S
CHETEK         SUNNY     61  46  57 W8        29.97F
LADYSMITH      MOSUNNY   62  46  55 W10G17    29.97S
EAU CLAIRE     LGT RAIN  56  48  74 W5        29.98F
MENOMONIE      CLOUDY    61  45  55 W12G21    30.00S
NEW RICHMOND   PTSUNNY   60  48  65 W12       30.00F
OSCEOLA        MOSUNNY   65  42  43 W13G18    30.02S
$$

WIZ003>005-009-010-017-018-250000-
NORTH CENTRAL WISCONSIN

CITY           SKY/WX    TMP DP  RH WIND       PRES   REMARKS
MANITOWISH WTR LGT RAIN  56  50  81 W6        29.94R
ARBOR VITAE    PTSUNNY   60  47  62 NW13G21   29.93S
WOODRUFF       PTSUNNY   60  47  62 NW13G21   29.93S
RHINELANDER    RAIN      51  49  92 NW15G22   29.95R FOG
EAGLE RIVER    PTSUNNY   57  49  76 NW5       29.93S
LAND O LAKES   LGT RAIN  54  51  90 NW3       29.95S
PHILLIPS       PTSUNNY   56  48  75 NW7       29.96R
TOMAHAWK       NOT AVBL
MEDFORD        SUNNY     60  43  53 W15       29.95S
MERRILL        MOSUNNY   64  44  48 NW14G22   29.95S
$$

WIZ029-030-035-036-043>047-250000-
CENTRAL WISCONSIN

CITY           SKY/WX    TMP DP  RH WIND       PRES   REMARKS
WAUSAU         SUNNY     62  45  53 NW10      29.93F
MOSINEE        PTSUNNY   64  41  42 W20       29.95F
MARSHFIELD     CLOUDY    61  43  51 W10G22    29.95S
STEVENS POINT  MOSUNNY   65  40  41 W13G18    29.95S
WAUPACA        PTSUNNY   68  40  35 W14       29.95R
WAUTOMA        MOSUNNY   66  43  43 W15G22    29.97R
WISC RAPIDS    PTSUNNY   67  42  40 W14G29    29.97S
CAMP DOUGLAS   PTSUNNY   58  47  67 SW8       29.98S
$$

WIZ011>013-019>022-031-037>040-048>050-250000-
NORTHEAST WISCONSIN

CITY           SKY/WX    TMP DP  RH WIND       PRES   REMARKS
ANTIGO         CLOUDY    61  45  56 W16G28    29.94R
SHAWANO        MOSUNNY   69  45  41 W13G20    29.90F
OCONTO         PTSUNNY   66  46  46 W9G17     29.89F
STURGEON BAY     N/A     63  54  72 N9          N/A
GREEN BAY      SUNNY     69  43  38 W16       29.91F
MANITOWOC      PTSUNNY   67  43  41 W14G21    29.92S
APPLETON       MOSUNNY   66  37  34 W18G24    29.92F
CLINTONVILLE   MOSUNNY   68  41  37 W14       29.91F
OSHKOSH        MOSUNNY   67  41  38 W15G21    29.93F
$$

WIZ032>034-041-042-053>061-250000-
SOUTHWEST WISCONSIN

CITY           SKY/WX    TMP DP  RH WIND       PRES   REMARKS
LA CROSSE      RAIN      58  50  75 N6        30.03F
SPARTA         CLOUDY    58  49  73 SW5       30.01S
VIROQUA        CLOUDY    56  52  85 W8        30.03S
BOSCOBEL       CLOUDY    58  53  84 S5        30.04F
PRAIRIE DU CHI CLOUDY    57  50  77 CALM      30.03F
PLATTEVILLE    PTSUNNY   57  56  96 NW13      30.05R
$$

WIZ056-057-062-063-064-067-068-250000-
SOUTH CENTRAL WISCONSIN

CITY           SKY/WX    TMP DP  RH WIND       PRES   REMARKS
REEDSBURG      PTSUNNY   56  50  79 W8        30.02R
BARABOO/DELLS  CLOUDY    59  43  55 W18G37    30.02R
LONE ROCK      LGT RAIN  58  53  84 W6        30.04R
MINERAL POINT  LGT RAIN  55  54  94 NW16G32   30.08R
MADISON        MOSUNNY   68  44  42 W9        29.98S
MIDDLETON      MOSUNNY   67  43  41 W14G20    30.00S
WATERTOWN      SUNNY     67  43  42 W14G22    29.98R
MONROE         MOSUNNY   68  39  34 W8G21     30.01S
JANESVILLE     MOSUNNY   72  39  30 NW14G25   29.99F
$$

WIZ051-052-058>065-066-070>072-250000-
SOUTHEAST WISCONSIN

CITY           SKY/WX    TMP DP  RH WIND       PRES   REMARKS
MILWAUKEE      MOSUNNY   72  41  32 W17G28    29.96S
WAUKESHA       MOSUNNY   66  41  39 W18G28    29.98S
MILWAUKEE/TIMM MOSUNNY   68  37  32 W20G26    29.96F
RACINE         MOSUNNY   71  44  37 W15G23    29.98S
KENOSHA        MOSUNNY   70  45  40 W20G29    29.98R
FOND DU LAC    MOSUNNY   68  41  37 NW20G25   29.94F
SHEBOYGAN      MOSUNNY   68  46  45 W15G26    29.93S
WEST BEND      SUNNY     68  39  34 NW12      29.95S
JUNEAU         MOSUNNY   66  42  42 W12G22    29.98R
$$

LSZ147-162-250000-
LAKE SUPERIOR

STATION/POSITION TIME  TEMP    WIND        PRES    WAVE
                       AIR SEA DIR/SP/G            HT/PER
                 (UTC) (F)     (DEG/KT/KT) (MB)    (FT/S)
W MID LAKE BUOY  2250   44 39  270/  4/  4 1013.3R   1/ 4
DEVILS ISLAND    2300   54     230/  8/ 10 1013.5F
SAXON HARBOR     2240   60     220/  6/ 10 1013.2S
$$

LMZ867-665-643>646-250000-
LAKE MICHIGAN

STATION/POSITION TIME  TEMP    WIND        PRES    WAVE
                       AIR SEA DIR/SP/G            HT/PER
                 (UTC) (F)     (DEG/KT/KT) (MB)    (FT/S)
CHAMBERS ISLAND  2240   61     310/  6/ 10 1012.2F
S GREEN BAY BUOY 2300   63      70/  6/ 10 1012.3
N MID LAKE BUOY  2250   58 58  290/ 10/ 12 1012.8F   1/ 3
NORTHPORT PIER   2240   60     300/  8/ 13 1012.5S
KEWAUNEE LAKESHO 2254   68     280/  7/ 14 1012.2F
SHEBOYGAN LAKESH 2300   67     270/ 18/ 23 1013.1F
PORT WASHINGTON  2240   71     250/  7/ 15 1014.6S
ATWATER BUOY     2209   67 60  260/ 17/ 21 1014.3F
MILWAUKEE LAKESH 2300   69     300/ 15/ 19   N/A
S MID LAKE BUOY  2250   65 63  280/  6/  8 1014.6F   1/ 3
KENOSHA   LAKESH 2300   70     290/ 12/ 23 1014.6
$$

TC  - TEMPERATURE IN CELSIUS
VSB - VISIBILITY IN STATUTE MILES
WCI - WIND CHILL INDEX
HX  - HEAT INDEX




USA.gov is the U.S. government's official web portal to all federal, state and local government web resources and services.